Weather History for Torrington, WY

Change the Weather History Date:

Friday, January 18, 2013

  Actual Average Record
Temperature  
Mean Temperature 41 °F 28 °F  
Max Temperature 54 °F 42 °F 59 °F (2009)
Min Temperature 27 °F 15 °F 6 °F (2008)
Degree Days  
Heating Degree Days 24 37  
Month to date heating degree days 721 670  
Since 1 July heating degree days 3203 3426  
Cooling Degree Days 0 0  
Month to date cooling degree days 0 0  
Year to date cooling degree days 0 0  
Moisture  
Dew Point 10 °F    
Average Humidity 32    
Maximum Humidity 47    
Minimum Humidity 16    
Precipitation  
Precipitation 0.00 in 0.01 in 0.07 in (2000)
Month to date precipitation 0.02 0.15  
Year to date precipitation 0.02 0.15  
Sea Level Pressure  
Sea Level Pressure 30.05 in    
Wind  
Wind Speed 15 mph (West)    
Max Wind Speed 30 mph    
Max Gust Speed 40 mph    
Visibility 10 miles    
Events      
T = Trace of Precipitation, MM = Missing Value Source: NWS Daily Summary

Daily Weather History Graph

Daily Weather History Graph

Search for Another Location

Airport:

Trip Planner

Search our weather history database for the weather conditions in past years. The results will help you decide how hot, cold, wet, or windy it might be!

Date:

Astronomy

Jan. 18, 2013 Rise Set
Actual Time 7:20 AM MST 4:54 PM MST
Civil Twilight 6:49 AM MST 5:24 PM MST
Nautical Twilight 6:15 AM MST 5:59 PM MST
Astronomical Twilight 5:42 AM MST 6:32 PM MST
Moon 10:51 AM MST (1/18) No Moon Set
Length of Visible Light 10h 34m
Length of Day
9h 33m
Waxing Crescent, 48% of the Moon is Illuminated
Jan 18
Waxing Crescent
Jan 18
First Quarter
Jan 26
Full
Feb 3
Last Quarter
Feb 10
New

Hourly Weather History & Observations

Time (MST) Temp. Windchill Dew Point Humidity Pressure Visibility Wind Dir Wind Speed Gust Speed Precip Events Conditions
12:53 AM 30.9 °F 23.5 °F 10.9 °F 43% 30.15 in 10.0 mi WNW 8.1 mph - N/A   Clear
1:53 AM 32.0 °F 28.7 °F 10.0 °F 40% 30.13 in 10.0 mi SW 3.5 mph - N/A   Clear
2:53 AM 36.0 °F 29.0 °F 10.0 °F 34% 30.11 in 10.0 mi WNW 9.2 mph - N/A   Clear
3:53 AM 33.1 °F 23.9 °F 10.0 °F 38% 30.09 in 10.0 mi West 12.7 mph - N/A   Clear
4:53 AM 36.0 °F 26.7 °F 9.0 °F 33% 30.09 in 10.0 mi West 15.0 mph - N/A   Clear
5:53 AM 36.0 °F 28.5 °F 9.0 °F 33% 30.10 in 10.0 mi West 10.4 mph - N/A   Clear
6:53 AM 33.1 °F 27.7 °F 9.0 °F 37% 30.13 in 10.0 mi West 5.8 mph - N/A   Clear
7:53 AM 32.0 °F 24.8 °F 9.0 °F 38% 30.14 in 10.0 mi West 8.1 mph - N/A   Clear
8:53 AM 41.0 °F 32.2 °F 9.0 °F 27% 30.14 in 10.0 mi West 18.4 mph - N/A   Clear
9:53 AM 46.0 °F 39.3 °F 9.0 °F 22% 30.12 in 10.0 mi West 16.1 mph 21.9 mph N/A   Clear
10:53 AM 48.9 °F - 8.1 °F 19% 30.07 in 10.0 mi West 25.3 mph 34.5 mph N/A   Clear
11:53 AM 52.0 °F - 9.0 °F 18% 30.03 in 10.0 mi West 18.4 mph 26.5 mph N/A   Clear
12:53 PM 54.0 °F - 9.0 °F 17% 30.00 in 10.0 mi West 21.9 mph 33.4 mph N/A   Clear
1:53 PM 53.1 °F - 9.0 °F 17% 30.00 in 10.0 mi West 26.5 mph 40.3 mph N/A   Clear
2:53 PM 52.0 °F - 10.0 °F 19% 29.98 in 10.0 mi West 23.0 mph 29.9 mph N/A   Clear
3:53 PM 50.0 °F - 12.0 °F 22% 29.99 in 10.0 mi West 17.3 mph 25.3 mph N/A   Clear
4:53 PM 46.0 °F 41.4 °F 12.9 °F 26% 30.00 in 10.0 mi West 9.2 mph - N/A   Clear
5:53 PM 43.0 °F 36.8 °F 12.0 °F 28% 30.01 in 10.0 mi West 11.5 mph - N/A   Clear
6:53 PM 39.9 °F - 12.0 °F 32% 30.04 in 10.0 mi Calm Calm - N/A   Clear
8:53 PM 41.0 °F 32.5 °F 12.0 °F 31% 29.98 in 10.0 mi West 17.3 mph 27.6 mph N/A   Clear
9:53 PM 39.9 °F 31.1 °F 12.0 °F 32% 29.98 in 10.0 mi West 17.3 mph 26.5 mph N/A   Clear
10:53 PM 39.9 °F 29.2 °F 12.0 °F 32% 29.97 in 10.0 mi West 25.3 mph 34.5 mph N/A   Clear
11:53 PM 39.0 °F 29.0 °F 12.0 °F 33% 29.98 in 10.0 mi West 20.7 mph 32.2 mph N/A   Clear